London, KY

8:15 AM EST on February 25, 2017 (GMT -0500)
London-Corbin / McKee

Weather History for KLOZ - May, 2013

Change the Weather History Date:

Wednesday, May 29, 2013

  Actual Average Record
Temperature  
Mean Temperature 75 °F 68 °F  
Max Temperature 85 °F 79 °F 90 °F (1987)
Min Temperature 65 °F 57 °F 43 °F (1968)
Degree Days  
Heating Degree Days 0 1  
Month to date heating degree days 102 92  
Since 1 July heating degree days 4364 4193  
Cooling Degree Days 10 5  
Month to date cooling degree days 85 78  
Year to date cooling degree days 125 104  
Growing Degree Days 20 (Base 50)    
Moisture  
Dew Point 59 °F    
Average Humidity 58    
Maximum Humidity 73    
Minimum Humidity 43    
Precipitation  
Precipitation 0.00 in 0.18 in 1.46 in (1992)
Month to date precipitation 4.23 4.84  
Year to date precipitation 20.20  
Snow  
Snow 0.00 in - - ()
Month to date snowfall 0.0  
Snow Depth 0.00 in    
Sea Level Pressure  
Sea Level Pressure 30.12 in    
Wind  
Wind Speed 1 mph (SSW)    
Max Wind Speed 10 mph    
Max Gust Speed 16 mph    
Visibility 10 miles    
Events      
T = Trace of Precipitation, MM = Missing Value Source: NWS Daily Summary

Daily Weather History Graph

Daily Weather History Graph

Search for Another Location

Airport or City:

Trip Planner

Search our weather history database for the weather conditions in past years. The results will help you decide how hot, cold, wet, or windy it might be!

Date:

Astronomy

May. 29, 2013 Rise Set
Actual Time 6:19 AM EDT 8:48 PM EDT
Civil Twilight 5:48 AM EDT 9:19 PM EDT
Nautical Twilight 5:11 AM EDT 9:56 PM EDT
Astronomical Twilight 4:30 AM EDT 10:37 PM EDT
Moon 12:14 AM EDT (5/29) 11:13 AM EDT (5/29)
Length of Visible Light 15h 30m
Length of Day
14h 29m
Waning Gibbous, 73% of the Moon is Illuminated
May 29
Waning Gibbous
May 31
Last Quarter
Jun 8
New
Jun 16
First Quarter
Jun 23
Full

Hourly Weather History & Observations

Time (EDT) Temp. Heat Index Dew Point Humidity Pressure Visibility Wind Dir Wind Speed Gust Speed Precip Events Conditions
12:53 AM 63.0 °F - 55.9 °F 78% 30.07 in 10.0 mi SE 3.5 mph - N/A   Clear
1:53 AM 62.1 °F - 55.9 °F 80% 30.09 in 10.0 mi Calm Calm - N/A   Clear
2:53 AM 61.0 °F - 55.0 °F 81% 30.10 in 10.0 mi Calm Calm - N/A   Clear
3:53 AM 60.1 °F - 55.9 °F 86% 30.11 in 10.0 mi Calm Calm - N/A   Clear
4:53 AM 57.9 °F - 55.0 °F 90% 30.12 in 10.0 mi Calm Calm - N/A   Clear
5:53 AM 57.9 °F - 55.0 °F 90% 30.12 in 7.0 mi Calm Calm - N/A   Clear
6:53 AM 59.0 °F - 55.0 °F 87% 30.14 in 7.0 mi Calm Calm - N/A   Partly Cloudy
7:53 AM 64.0 °F - 59.0 °F 84% 30.15 in 10.0 mi Calm Calm - N/A   Partly Cloudy
8:53 AM 70.0 °F - 60.1 °F 71% 30.16 in 10.0 mi South 4.6 mph - N/A   Partly Cloudy
9:53 AM 73.9 °F - 60.1 °F 62% 30.17 in 10.0 mi SSW 12.7 mph - N/A   Partly Cloudy
10:53 AM 77.0 °F - 61.0 °F 58% 30.16 in 10.0 mi SSW 10.4 mph - N/A   Clear
11:53 AM 79.0 °F - 60.1 °F 52% 30.17 in 10.0 mi SSW 12.7 mph - N/A   Clear
12:53 PM 82.0 °F 82.4 °F 60.1 °F 47% 30.16 in 10.0 mi WSW 10.4 mph - N/A   Scattered Clouds
1:53 PM 82.0 °F 82.7 °F 61.0 °F 49% 30.14 in 10.0 mi SW 6.9 mph - N/A   Clear
2:53 PM 82.0 °F 82.1 °F 59.0 °F 45% 30.12 in 10.0 mi South 10.4 mph - N/A   Partly Cloudy
3:53 PM 84.0 °F 84.0 °F 60.1 °F 44% 30.11 in 9.0 mi SW 8.1 mph - N/A   Clear
4:53 PM 84.0 °F 84.5 °F 62.1 °F 47% 30.10 in 10.0 mi SSW 8.1 mph - N/A   Partly Cloudy
5:53 PM 82.9 °F 83.7 °F 62.1 °F 49% 30.09 in 10.0 mi South 6.9 mph - N/A   Partly Cloudy
6:53 PM 82.0 °F 82.7 °F 61.0 °F 49% 30.08 in 10.0 mi South 5.8 mph - N/A   Clear
7:53 PM 81.0 °F 81.7 °F 61.0 °F 50% 30.08 in 10.0 mi South 3.5 mph - N/A   Clear
8:53 PM 77.0 °F - 62.1 °F 60% 30.07 in 10.0 mi SSE 3.5 mph - N/A   Clear
9:53 PM 73.9 °F - 62.1 °F 66% 30.08 in 10.0 mi Calm Calm - N/A   Clear
10:53 PM 70.0 °F - 63.0 °F 78% 30.10 in 10.0 mi Calm Calm - N/A   Clear
11:53 PM 66.9 °F - 63.0 °F 87% 30.10 in 10.0 mi Calm Calm - N/A   Clear